Flag Weather past 2 weeks in Laval, Quebec, Canada

Now
28 °F

Passing clouds.


Feels Like: 25 °F
Forecast: 32 / 36 °F
Wind: 3 mph from West

Location: Montreal / Mirabel

Current Time: Nov 26, 2014 at 5:37:29 AM

Latest Report: Nov 26, 2014 at 5:00 AM


Visibility: 25 mi

Pressure: 30.22 "Hg

Humidity: 64%

Dew point: 18 °F

Location of LavalLocation

Historic Weather in Laval — Graph

°F

Laval temperature yesterday

Maximum temperature yesterday: 48 °F (at 12:00 AM)
Minimum temperature yesterday: 36 °F (at 10:00 PM)
Average temperature yesterday: 42 °F

Past Weeks' High & Low Weather Summary

 TemperatureHumidityPressure
High64 °F (Nov 24, 3:00 PM)100% (Nov 12, 7:00 AM)30.35 "Hg (Nov 12, 7:00 AM)
Low14 °F (Nov 21, 11:00 PM)38% (Nov 21, 12:00 PM)29.26 "Hg (Nov 24, 6:00 PM)
Average32 °F75%29.90 "Hg
* Reported Nov 11 4:00 AM — Nov 26 4:00 AM, Laval, Weather by CustomWeather, © 2014

Note: Actual official high and low records may vary slightly from our data, if they occured in-between our weather recording intervals... More about our weather records

Advertising

Laval weather history for previous 24 hours

 ConditionsComfort  
Time TempWeatherWind HumidityBarometerVisibility
4:00 AM
Nov 26
30 °FPassing clouds.3 mph59%30.20 "Hg25 mi
3:00 AM32 °FPassing clouds.5 mph55%30.18 "Hg25 mi
2:00 AM32 °FPartly cloudy.9 mph60%30.16 "Hg25 mi
1:00 AM36 °FPartly cloudy.17 mph65%30.10 "Hg25 mi
12:00 AM36 °FPartly cloudy.13 mph65%30.08 "Hg25 mi
11:00 PM
Nov 25
36 °FPassing clouds.16 mph65%30.05 "Hg25 mi
10:00 PM36 °FPartly cloudy.13 mph60%30.01 "Hg25 mi
9:00 PM37 °FMostly cloudy.16 mph60%29.98 "Hg25 mi
8:00 PM39 °FOvercast.14 mph61%29.95 "Hg25 mi
7:00 PM39 °FOvercast.17 mph65%29.92 "Hg25 mi
6:00 PM39 °FMostly cloudy.12 mph70%29.89 "Hg25 mi
5:00 PM41 °FOvercast.15 mph61%29.86 "Hg25 mi
4:00 PM43 °FSprinkles. Cloudy.18 mph61%29.84 "Hg25 mi
3:00 PM43 °FMostly cloudy.13 mph66%29.83 "Hg25 mi
2:00 PM45 °FPartly sunny.20 mph57%29.80 "Hg45 mi
1:00 PM45 °FPartly sunny.14 mph57%29.79 "Hg45 mi
12:00 PM45 °FPartly sunny.21 mph57%29.78 "Hg45 mi
11:00 AM43 °FPartly sunny.12 mph61%29.78 "Hg45 mi
10:00 AM43 °FPartly sunny.12 mph61%29.77 "Hg45 mi
9:00 AM41 °FPartly sunny.16 mph66%29.76 "Hg45 mi
8:00 AM41 °FPartly sunny.15 mph66%29.73 "Hg25 mi
7:00 AM41 °FPassing clouds.12 mph66%29.70 "Hg45 mi
6:00 AM43 °FOvercast.17 mph61%29.67 "Hg25 mi
5:00 AM45 °FPassing clouds.20 mph57%29.65 "Hg25 mi
Weather by CustomWeather, © 2014

See weather overviewHow to use our weather pages